Back to catalog

STARLINK-34023

AliveCommunicationsVLEO
NORAD 63875·PAYLOAD·🇺🇸 United States

Launched May 10, 2025 from Vandenberg Space Force Base

Loading…

Next Passes (next 24 hours)

TLE

FreshSource: CelesTrak SupGP

Epoch: Sep 14, 2026, 20:34 UTC

1 63875C 25094M   26257.85743056 -.00029819  00000+0 -10373-2 0  2572
2 63875  69.9992 115.7145 0003427 270.0181  83.9209 15.29592556    15

Track STARLINK-34023 in real time with AllMySat

Download on the App Store